TimeMDT,TemperatureF,Dew PointF,Humidity,Sea Level PressureIn,VisibilityMPH,Wind Direction,Wind SpeedMPH,Gust SpeedMPH,PrecipitationIn,Events,Conditions,WindDirDegrees,DateUTC
12:15 AM,35.6,19.4,52,30.27,10.0,NW,10.4,-,N/A,,Clear,310,2012-10-04 06:15:00
12:35 AM,35.6,19.4,52,30.27,10.0,NW,6.9,-,N/A,,Clear,310,2012-10-04 06:35:00
12:55 AM,35.6,19.4,52,30.26,10.0,WNW,9.2,-,N/A,,Clear,300,2012-10-04 06:55:00
1:15 AM,35.6,19.4,52,30.26,10.0,NW,6.9,-,N/A,,Clear,310,2012-10-04 07:15:00
1:35 AM,33.8,19.4,56,30.25,10.0,NW,9.2,-,N/A,,Clear,310,2012-10-04 07:35:00
1:55 AM,33.8,19.4,56,30.26,10.0,NW,8.1,-,N/A,,Clear,310,2012-10-04 07:55:00
2:15 AM,33.8,19.4,56,30.26,10.0,NW,10.4,-,N/A,,Clear,310,2012-10-04 08:15:00
2:35 AM,33.8,19.4,56,30.26,10.0,NW,9.2,-,N/A,,Clear,310,2012-10-04 08:35:00
2:55 AM,33.8,17.6,52,30.25,10.0,WNW,9.2,-,N/A,,Clear,300,2012-10-04 08:55:00
3:15 AM,33.8,17.6,52,30.24,10.0,NW,9.2,-,N/A,,Clear,310,2012-10-04 09:15:00
3:35 AM,33.8,17.6,52,30.24,10.0,NW,8.1,-,N/A,,Clear,320,2012-10-04 09:35:00
3:55 AM,32.0,17.6,55,30.24,10.0,NW,8.1,-,N/A,,Clear,320,2012-10-04 09:55:00
4:15 AM,32.0,17.6,55,30.24,10.0,WNW,8.1,-,N/A,,Clear,300,2012-10-04 10:15:00
4:35 AM,32.0,17.6,55,30.23,10.0,WNW,9.2,-,N/A,,Clear,300,2012-10-04 10:35:00
4:55 AM,32.0,17.6,55,30.23,10.0,NW,6.9,-,N/A,,Clear,310,2012-10-04 10:55:00
5:15 AM,32.0,17.6,55,30.23,10.0,NW,8.1,-,N/A,,Clear,310,2012-10-04 11:15:00
5:35 AM,32.0,17.6,55,30.23,10.0,NW,9.2,-,N/A,,Clear,310,2012-10-04 11:35:00
5:55 AM,32.0,17.6,55,30.23,10.0,WNW,8.1,-,N/A,,Clear,300,2012-10-04 11:55:00
6:15 AM,32.0,17.6,55,30.23,10.0,NW,9.2,-,N/A,,Clear,310,2012-10-04 12:15:00
6:35 AM,32.0,17.6,55,30.23,10.0,NW,10.4,-,N/A,,Clear,310,2012-10-04 12:35:00
6:50 AM,30.2,15.8,55,30.23,10.0,SE,11.5,-,N/A,,Partly Cloudy,130,2012-10-04 12:50:00
6:55 AM,32.0,17.6,55,30.23,10.0,NW,10.4,16.1,N/A,,Clear,320,2012-10-04 12:55:00
7:47 AM,30.2,15.8,55,30.22,10.0,WNW,8.1,-,N/A,,Partly Cloudy,300,2012-10-04 13:47:00
8:47 AM,32.0,15.8,51,30.22,10.0,WNW,11.5,-,N/A,,Clear,300,2012-10-04 14:47:00
9:47 AM,37.4,15.8,41,30.21,10.0,NW,11.5,-,N/A,,Clear,310,2012-10-04 15:47:00
10:47 AM,44.6,28.4,53,30.19,10.0,NW,9.2,-,N/A,,Partly Cloudy,310,2012-10-04 16:47:00
11:47 AM,51.8,19.4,28,30.18,10.0,SE,9.2,-,N/A,,Partly Cloudy,140,2012-10-04 17:47:00
12:47 PM,53.6,17.6,24,30.17,10.0,ESE,10.4,16.1,N/A,,Partly Cloudy,110,2012-10-04 18:47:00
1:47 PM,55.4,17.6,23,30.15,10.0,Calm,Calm,-,N/A,,Partly Cloudy,0,2012-10-04 19:47:00
2:47 PM,55.4,17.6,23,30.12,10.0,South,9.2,-,N/A,,Partly Cloudy,190,2012-10-04 20:47:00
4:50 PM,57.2,17.6,21,30.08,10.0,SSE,9.2,-,N/A,,Scattered Clouds,160,2012-10-04 22:50:00
5:50 PM,55.4,15.8,21,30.08,10.0,SE,17.3,-,N/A,,Scattered Clouds,130,2012-10-04 23:50:00
6:50 PM,53.6,15.8,22,30.07,10.0,SE,127.7,-,N/A,,Scattered Clouds,130,2012-10-05 00:50:00
7:47 PM,51.8,15.8,24,30.06,10.0,SE,11.5,-,N/A,,Partly Cloudy,130,2012-10-05 01:47:00
8:47 PM,42.8,21.2,42,30.07,10.0,WNW,4.6,-,N/A,,Partly Cloudy,300,2012-10-05 02:47:00
9:47 PM,44.6,15.8,31,30.10,10.0,NW,5.8,-,N/A,,Partly Cloudy,310,2012-10-05 03:47:00
10:47 PM,42.8,15.8,34,30.12,10.0,NW,5.8,-,N/A,,Partly Cloudy,310,2012-10-05 04:47:00
11:15 PM,39.2,17.6,42,30.14,10.0,East,4.6,-,N/A,,Clear,100,2012-10-05 05:15:00
11:35 PM,37.4,19.4,48,30.14,10.0,Calm,Calm,-,N/A,,Clear,0,2012-10-05 05:35:00
11:55 PM,39.2,15.8,39,30.15,10.0,Calm,Calm,-,N/A,,Clear,0,2012-10-05 05:55:00